Regional Weather Roundup
Issued by NWS

Home | Current Version | Previous Version | Graphics & Text | Print | Product List | Glossary On
Versions: 1 2 3 4 5 6 7 8 9 10 11 12 13 14 15 16 17 18 19 20 21 22 23 24 25 26 27 28 29 30 31 32 33 34 35 36 37 38 39 40 41 42 43 44 45 46 47 48 49 50
000
ASUS43 KMPX 230401
RWRMN
WEATHER ROUNDUP FOR MINNESOTA
NATIONAL WEATHER SERVICE TWIN CITIES/CHANHASSEN MN
1100 PM CDT SUN APR 22 2018


NOTE: "FAIR" INDICATES FEW OR NO CLOUDS BELOW 12,000 FEET WITH NO
SIGNIFICANT WEATHER AND/OR OBSTRUCTIONS TO VISIBILITY. N/A MEANS
CURRENT SKY AND/OR WEATHER CONDITIONS ARE NOT AVAILABLE.

MNZ060>063-068>070-230500-
   Twin Cities Metro

CITY           SKY/WX    TMP DP  RH WIND       PRES   REMARKS
TWIN CITIES    FAIR      54  37  52 CALM      30.25S
ST PAUL        FAIR      46  39  76 CALM      30.25F
BLAINE         FAIR      48  36  61 CALM      30.24F
LAKEVILLE      FAIR      37  36  93 CALM      30.25S
EDEN PRAIRIE   FAIR      50  36  58 CALM      30.24S
SOUTH ST PAUL  FAIR      47  36  65 CALM      30.24F
LAKE ELMO      FAIR      43  37  81 CALM      30.26S
$$
MNZ001>005-007-008-013>017-022>024-027-028-230500-
   Northwest Minnesota

CITY           SKY/WX    TMP DP  RH WIND       PRES   REMARKS
BEMIDJI        FAIR      50  34  54 SW6       30.17S
HALLOCK        FAIR      50  45  81 S6        30.09S
ROSEAU         FAIR      54  45  71 SW9       30.10S
WARROAD        FAIR      54  45  71 SW9       30.10F
CROOKSTON      MOCLDY    54  43  66 S20       30.14S
FOSSTON        FAIR      46  36  66 S13       30.17S
DETROIT LAKES  FAIR      46  36  66 SW8       30.21S
MOORHEAD       FAIR      46  39  76 S10       30.19S
PARK RAPIDS    FAIR      44  35  70 S7        30.20S
MAHNOMEN       FAIR      46  37  69 S12       30.17F
$$
MNZ006-009>011-018-025>026-230500-
   North Central Minnesota

CITY           SKY/WX    TMP DP  RH WIND       PRES   REMARKS
BAUDETTE       CLOUDY    50  40  68 S6        30.11F
FLAG ISLAND    FAIR      39  34  81 S7        30.08S
INTL FALLS     FAIR      47  34  60 VRB3      30.14S
WASKISH        FAIR      52  36  54 S3        30.15S
BIG FORK       FAIR      45  30  57 S3        30.18S
LONGVILLE      FAIR      37  30  75 CALM      30.21S
GRAND RAPIDS   FAIR      44  32  62 S6        30.22F
CRANE LAKE     FAIR      43  28  56 S5        30.18S
ORR            FAIR      46  27  46 S7        30.16S
COOK           FAIR      48  30  49 S6        30.19F
WALKER         FAIR      48  33  56 SW5       30.19S
$$
MNZ012-019>021-037-230500-
   Northeast Minnesota

CITY           SKY/WX    TMP DP  RH WIND       PRES   REMARKS
DULUTH         FAIR      46  27  47 CALM      30.22F
ELY            FAIR      46  27  46 S5        30.20S
HIBBING        FAIR      37  27  67 CALM      30.20F
EVELETH        FAIR      39  27  62 CALM      30.22S
DULUTH HARBOR  FAIR      37  30  75 CALM      30.24F
TWO HARBORS    FAIR      37  27  65 CALM      30.21F
SILVER BAY     FAIR      34  25  69 CALM      30.21F
GRAND MARAIS     N/A     33  23  66 CALM      30.24F
G MARAIS ARPRT FAIR      34  16  47 CALM      30.23S
$$
MNZ029>031-032-039>041-046>048-054>057-064-230500-
   West Central Minnesota

CITY           SKY/WX    TMP DP  RH WIND       PRES   REMARKS
FERGUS FALLS   FAIR      43  36  75 S8        30.20S
WHEATON        CLEAR     46  36  66 S10       30.23F
MORRIS         CLEAR     43  37  81 S8        30.22F
ALEXANDRIA     FAIR      45  37  73 S7        30.24S
ELBOW LAKE     FAIR      39  36  87 S9        30.23S
WADENA         FAIR      45  36  70 CALM      30.22S
GLENWOOD       FAIR      39  37  93 S9        30.24F
APPLETON       CLEAR     45  37  76 SE5       30.24S
BENSON         CLEAR     43  39  87 SW3       30.26F
ORTONVILLE     CLEAR     43  36  75 SE5       30.22F
MADISON        CLEAR     45  39  81 SE3       30.23F
WILLMAR        FAIR      43  39  87 CALM      30.27F
$$
MNZ033>034-036-042>043-049>051-058-059-230500-
   Central Minnesota

CITY           SKY/WX    TMP DP  RH WIND       PRES   REMARKS
ST CLOUD       FAIR      43  37  79 CALM      30.24S
SAUK CENTRE    FAIR      42  37  83 S3        30.24F
PAYNESVILLE    FAIR      39  38  94 NW3       30.25S
AITKIN         FAIR      43  28  56 S5        30.21S
PINE RIVER     FAIR      39  30  70 CALM      30.25S
BRAINERD       FAIR      41  30  65 CALM      30.23S
STAPLES        FAIR      43  34  70 S6        30.23S
LONG PRAIRIE   FAIR      41  36  81 CALM      30.24F
LITTLE FALLS   FAIR      37  28  70 CALM      30.24F
LITCHFIELD     FAIR      45  41  87 CALM      30.26S
BUFFALO        FAIR      44  37  78 CALM      30.26S
MAPLE LAKE     FAIR      40  37  88 CALM      30.25F
HUTCHINSON     FAIR      44  43  99 CALM      30.27S
$$
MNZ037-044-045-052-053-230500-
   East Central Minnesota

CITY           SKY/WX    TMP DP  RH WIND       PRES   REMARKS
PRINCETON      FAIR      39  34  81 CALM      30.24F
MORA           FAIR      36  32  87 CALM      30.26S
CAMBRIDGE      FAIR      41  28  60 CALM      30.25S
RUSH CITY      FAIR      41  34  75 CALM      30.24F
MOOSE LAKE     FAIR      37  28  70 CALM      30.22S
HINCKLEY       FAIR      36  32  87 CALM      30.24F
CLOQUET        FAIR      43  27  52 CALM      30.23S
MCGREGOR       FAIR      45  32  61 S3        30.22F
$$
MNZ071>073-080-081-089-090-097-098-230500-
   Southwest Minnesota

CITY           SKY/WX    TMP DP  RH WIND       PRES   REMARKS
MONTEVIDEO     CLEAR     43  36  75 CALM      30.25S
GRANITE FALLS  CLEAR     45  40  82 SE3       30.26S
CANBY          CLEAR     40  38  91 CALM      30.24F
MARSHALL       CLEAR     41  37  86 S3        30.25F
REDWOOD FALLS  CLEAR     45  41  86 S6        30.24F
OLIVIA         CLEAR     43  39  87 CALM      30.24F
PIPESTONE      CLEAR    N/A N/A N/A SE5       30.23F
WINDOM         CLEAR     37  23  56 CALM      30.24F
WORTHINGTON    CLEAR     41  36  82 E6        30.24F
JACKSON        CLEAR     39  34  81 CALM      30.24F
TRACY          CLEAR     40  37  87 CALM      30.24F
SLAYTON        CLEAR     40  36  84 CALM      30.25S
$$
MNZ065>067-074>077-082>085-091>093-230500-
   South Central Minnesota

CITY           SKY/WX    TMP DP  RH WIND       PRES   REMARKS
MANKATO        FAIR      48  38  68 CALM      30.25F
NEW ULM        CLEAR     45  39  81 N5        30.25S
ST JAMES       CLEAR     37  36  93 NW3       30.25F
FAIRMONT       CLEAR     42  37  82 NE3       30.24S
GLENCOE        FAIR      47  46  97 CALM      30.25S
OWATONNA       FAIR      45  39  81 E3        30.25S
WASECA         FAIR      41  36  81 CALM      30.26S
ALBERT LEA     FAIR      43  37  81 CALM      30.24F
$$
MNZ078>079-086>088-094>096-230500-
   Southeast Minnesota

CITY           SKY/WX    TMP DP  RH WIND       PRES   REMARKS
ROCHESTER      FAIR      47  33  58 E7        30.25F
RED WING       FAIR      41  30  65 CALM      30.25S
STANTON        FAIR      41  37  86 CALM      30.23F
DODGE CENTER   FAIR      46  34  61 E5        30.25S
WINONA         FAIR      45  36  70 CALM      30.24S
AUSTIN         FAIR      43  37  81 CALM      30.24F
PRESTON        FAIR      49  29  45 E5        30.26S
$$
ABBREVIATIONS USED IN REMARKS
   TC - TEMPERATURES IN CELSIUS
  WCI - WIND CHILL INDEX
   HX - HEAT INDEX
  VSB - VISIBILITY
$$



USA.gov is the U.S. government's official web portal to all federal, state and local government web resources and services.